Temperature
21 21 20 20 19 19 20 22 22 22 22 22 23 23 23 23 23 21 20 21 22 21 21 20 21 20 20 20 20 20 20 20 20 20 19 19 19 19 19 19 19 19 19 19 19 19 19 19 19
21 21 20 19 19 20 21 22 22 22 22 21 22 23 23 22 21 20 20 21 22 21 21 21 20 20 20 20 20 20 20 20 19 19 19 19 19 19 19 19 19 19 19 19 19 19 19 19 19
21 20 20 19 20 20 22 22 23 22 21 21 21 23 23 22 20 20 21 21 22 21 21 21 20 20 20 20 20 20 20 19 19 19 19 19 19 19 19 19 19 19 19 19 19 19 19 19 19
21 20 20 19 20 22 23 23 23 23 21 21 20 22 23 22 21 21 21 21 22 21 21 21 20 20 20 20 20 20 20 19 19 19 19 19 19 19 19 19 19 19 19 19 19 19 19 19 19
21 20 19 19 21 24 25 24 23 23 21 20 20 21 22 22 22 21 21 21 21 21 21 21 21 21 20 20 20 20 20 19 19 19 19 19 19 19 18 18 18 18 19 19 19 19 19 19 19
21 20 19 20 23 25 25 24 23 22 20 20 20 20 21 21 22 21 21 21 21 21 21 21 20 20 20 20 20 20 19 19 19 19 19 19 19 18 18 18 18 18 18 18 19 19 19 19 19
21 20 20 22 23 24 24 23 22 21 20 19 19 20 21 21 21 21 21 21 21 21 21 21 20 20 20 20 20 20 19 19 19 19 19 18 18 18 18 18 18 18 18 18 18 18 18 18 19
23 20 21 22 23 24 23 22 21 20 19 19 20 20 20 20 21 20 21 21 21 21 21 20 20 20 20 20 19 19 19 19 19 18 18 18 18 18 18 18 18 18 18 18 18 18 18 18 18
24 20 20 22 24 24 23 21 20 20 19 19 20 20 20 20 20 20 20 20 20 20 20 20 20 20 19 19 19 19 19 19 18 18 18 18 18 18 18 18 18 18 17 18 18 18 18 18 18
24 20 21 24 24 24 23 21 20 19 19 19 19 21 20 20 20 19 20 19 20 20 20 20 20 19 19 19 19 19 18 18 18 18 18 18 18 18 17 17 17 17 17 17 17 17 17 17 17
24 22 23 24 24 24 22 21 20 19 18 19 19 20 21 20 20 20 20 20 20 20 19 19 19 19 19 19 19 18 18 18 18 18 18 18 17 17 17 17 17 17 17 17 17 17 17 17 17
25 25 25 24 24 23 22 20 19 19 19 20 20 21 20 20 20 20 20 20 19 19 19 19 19 19 19 18 18 18 18 18 18 18 17 17 17 17 17 17 17 17 17 17 17 17 17 17 17
25 25 25 24 23 22 21 19 18 18 19 20 20 20 20 20 20 20 20 20 19 19 19 19 19 19 18 18 18 18 18 18 18 17 17 17 17 17 17 17 16 16 16 16 16 16 16 16 16
26 25 25 24 22 22 20 19 19 18 18 19 19 19 19 20 20 20 20 20 20 20 19 19 19 19 18 18 18 18 18 18 18 17 17 17 17 17 17 16 16 16 16 16 16 16 16 16 16
26 24 24 23 22 21 21 19 18 18 18 18 19 19 19 19 20 20 20 20 20 20 19 19 19 19 18 18 18 18 18 17 17 17 17 17 16 16 16 16 15 15 15 15 15 15 15 16 16
24 22 22 22 22 21 21 19 18 18 18 18 19 19 19 19 19 20 20 20 19 19 19 19 19 18 18 18 18 18 17 17 17 17 16 16 16 16 15 15 15 15 15 15 15 15 15 15 15
21 21 22 22 22 21 20 18 18 18 18 18 19 19 18 19 19 19 19 19 19 19 19 19 18 18 18 18 18 17 17 17 17 16 16 16 16 15 15 15 14 14 14 14 14 14 14 15 15
22 22 22 21 21 21 20 19 18 18 18 18 18 18 18 18 18 19 19 19 19 19 19 19 18 18 18 18 18 17 17 17 16 16 16 16 15 15 15 14 14 14 14 14 14 14 14 14 14
24 23 22 22 22 21 20 19 18 18 18 18 18 18 18 18 18 18 18 19 18 18 18 18 18 18 18 18 18 17 17 16 16 16 15 15 15 15 14 14 14 13 13 13 13 13 13 14 14
24 23 22 22 22 21 19 19 19 18 18 18 18 18 18 18 18 18 18 18 19 18 18 19 18 18 18 18 17 17 16 16 16 15 15 15 15 14 14 14 13 13 13 13 13 13 13 13 13
24 23 22 21 21 20 20 19 18 18 18 18 18 19 19 19 18 18 18 18 18 18 19 19 19 18 18 18 17 17 16 16 15 15 15 15 14 14 14 13 13 13 13 13 13 13 13 13 13
23 24 24 22 20 18 19 18 18 18 18 18 18 19 19 19 19 19 19 18 19 19 19 19 19 18 18 18 17 17 16 16 15 15 15 14 14 14 13 13 13 13 13 13 12 12 12 12 12
23 23 22 21 18 18 18 18 18 18 18 18 18 19 19 19 19 19 19 19 19 19 19 19 19 18 18 18 17 17 16 16 15 15 15 14 14 14 13 13 13 13 13 12 12 12 12 12 12
24 21 20 17 17 18 18 18 18 18 19 19 19 19 20 20 20 20 20 20 19 19 19 19 19 19 18 18 17 17 16 16 15 15 15 14 14 14 13 13 13 12 12 12 12 12 12 12 11
24 20 19 19 17 18 18 19 18 19 20 20 20 20 21 20 20 20 20 20 20 20 19 19 19 19 18 18 17 17 16 16 15 15 15 14 14 13 13 13 13 12 12 12 12 12 12 11 11
24 21 20 20 19 18 18 18 19 21 21 22 22 21 21 21 21 21 21 21 20 20 20 20 19 19 18 18 17 17 16 16 16 15 15 14 14 14 13 13 13 12 12 12 12 12 12 11 11
24 22 21 19 19 18 19 19 20 22 21 21 21 21 21 21 21 21 21 21 21 21 20 20 20 19 19 18 18 17 17 16 16 15 15 14 14 14 13 13 13 12 12 12 12 12 12 11 11
24 23 19 19 19 19 19 19 19 21 21 21 21 21 22 22 22 22 22 22 21 21 21 20 20 19 19 18 18 17 17 16 16 16 15 15 14 14 13 13 13 12 12 12 12 12 11 11 11
23 22 20 17 18 18 18 19 21 20 21 21 21 22 23 23 23 23 22 22 22 21 21 21 20 20 19 19 18 18 17 17 16 16 16 15 15 14 14 13 13 12 12 12 12 12 11 11 11
23 22 19 19 19 18 18 19 22 21 22 22 23 23 24 24 24 23 23 23 22 22 21 21 21 20 20 19 18 18 17 17 17 16 16 15 15 14 14 13 13 13 12 12 12 11 11 11 11
Wind_Speed
10 7 2 0 2 1 3 3 2 4 6 6 3 3 6 3 4 5 7 17 20 17 18 20 21 21 21 20 20 19 18 18 18 17 17 16 15 15 14 13 13 13 12 12 11 11 11 10 10
8 5 2 1 1 1 4 3 4 4 2 6 7 0 2 5 8 12 10 18 20 18 18 19 21 21 20 20 19 18 18 17 17 16 16 15 14 13 13 12 12 11 11 10 10 10 9 9 8
7 5 1 1 2 4 4 3 5 2 2 4 6 3 2 7 11 7 12 20 17 15 18 20 22 21 20 20 19 18 18 17 16 15 15 14 13 12 12 11 10 10 10 9 9 8 8 7 6
4 2 1 1 7 6 6 6 4 2 5 9 6 3 3 6 6 13 20 18 17 13 17 20 22 21 20 19 18 18 17 16 15 14 13 12 12 11 10 10 9 9 8 8 7 7 6 6 5
2 3 0 4 6 6 4 5 4 3 3 7 7 3 4 6 19 21 19 17 16 12 14 19 21 20 20 19 18 17 16 15 14 14 13 12 11 10 9 8 8 8 7 7 6 6 5 5 4
1 2 0 4 6 6 1 3 6 8 7 6 4 3 3 11 19 17 17 15 15 14 13 17 19 19 19 18 18 17 15 14 13 13 12 10 9 9 8 8 7 7 6 6 6 5 5 4 4
3 1 3 5 6 5 4 5 7 11 11 6 3 1 2 10 15 16 16 14 13 13 12 13 15 17 18 17 17 16 14 13 12 11 9 8 8 7 7 7 7 7 7 6 6 6 6 5 5
5 1 5 5 6 4 2 5 7 10 7 5 4 2 3 7 12 15 14 13 12 10 9 10 11 12 13 14 15 14 13 12 10 9 7 6 6 6 6 7 7 7 7 7 6 6 6 7 7
3 1 5 5 3 2 3 6 5 6 8 5 4 3 5 10 13 15 14 11 10 10 8 7 9 10 11 11 11 11 11 10 8 6 4 3 2 2 4 5 7 7 6 6 6 6 7 7 7
5 4 8 5 2 2 6 9 7 7 8 5 4 5 7 10 12 15 15 14 12 10 8 7 7 8 9 9 9 8 7 7 6 5 5 5 4 2 1 2 3 4 4 5 5 5 5 6 6
6 7 7 4 1 6 8 8 6 11 6 9 11 11 10 8 9 11 12 12 12 11 9 7 8 8 8 6 7 6 6 7 8 9 9 9 8 7 5 3 2 1 1 2 2 2 3 3 4
5 6 3 1 2 7 8 8 7 5 8 10 10 10 10 11 10 11 12 12 11 11 9 8 8 7 7 8 7 7 7 7 8 9 11 10 7 6 5 3 3 2 1 1 1 0 2 3 4
2 2 1 4 8 10 12 10 8 3 5 6 6 5 7 9 9 8 10 10 11 11 9 9 9 8 7 6 6 7 7 8 9 10 12 11 6 4 5 4 4 3 2 1 1 1 1 1 2
3 2 1 4 8 6 11 8 5 4 4 4 3 2 4 7 7 8 11 11 11 10 9 8 9 8 7 6 5 6 8 10 10 10 11 11 9 6 4 4 5 4 3 2 1 1 1 1 2
3 5 5 4 6 4 8 6 3 5 5 4 4 3 3 6 6 8 11 12 12 11 9 8 8 7 7 7 6 8 9 11 9 9 10 10 10 8 6 4 4 6 6 5 5 5 4 3 3
5 5 4 4 3 2 6 3 4 6 6 5 5 3 3 4 4 6 9 10 10 11 9 8 9 8 7 6 7 7 9 9 8 9 9 10 11 10 8 4 4 7 8 6 3 4 4 4 4
4 2 4 4 2 2 5 3 5 6 7 6 5 4 4 4 5 7 9 11 10 10 10 7 8 8 7 7 6 7 7 7 8 8 8 9 9 10 8 5 5 8 6 4 4 4 3 3 4
5 3 2 3 1 3 3 3 5 6 6 5 3 5 7 8 9 10 10 10 10 10 10 10 8 7 7 5 5 4 4 3 6 7 7 8 8 9 8 6 6 7 4 5 4 4 4 3 3
6 3 1 2 1 2 2 3 6 6 5 5 5 6 8 8 6 8 9 10 10 9 10 9 8 6 5 4 4 4 3 3 3 4 7 8 7 8 8 5 5 5 5 4 5 3 4 4 4
4 2 1 1 0 1 2 2 4 6 7 7 8 8 9 9 8 10 10 9 9 10 10 9 9 8 6 4 4 3 3 3 3 3 5 7 7 7 7 5 3 4 4 6 6 5 3 4 4
3 4 4 4 3 4 2 2 1 2 3 6 6 7 8 12 13 12 11 9 10 11 11 10 9 8 7 6 4 3 3 3 2 2 2 3 6 6 6 6 4 3 4 3 3 4 4 3 3
1 4 5 6 4 2 2 2 4 3 4 6 8 8 9 10 11 11 12 11 12 11 10 10 9 8 7 7 5 5 4 3 3 3 3 2 4 5 7 7 5 4 3 3 2 3 2 2 2
5 3 5 5 5 4 3 1 6 1 4 7 9 10 11 11 13 13 13 13 12 11 11 10 9 8 8 7 7 7 5 4 3 3 3 1 1 2 5 7 5 3 2 3 2 2 2 1 1
9 6 6 5 5 4 3 0 6 4 7 7 9 11 12 13 13 13 12 10 10 10 10 10 10 9 8 8 8 8 8 6 5 3 2 1 1 0 3 6 5 4 3 3 2 1 0 0 1
4 5 5 7 6 3 4 1 8 9 7 9 12 13 13 13 13 13 12 12 12 12 12 11 11 10 9 9 8 9 9 8 6 5 3 2 1 1 3 4 4 3 4 4 2 2 2 2 2
3 7 6 2 3 3 2 4 8 9 7 9 11 12 14 14 14 15 16 15 14 14 14 13 13 11 10 10 9 8 8 6 5 5 5 4 4 3 4 4 5 5 5 4 3 2 3 3 3
2 2 6 6 3 1 4 6 8 3 4 8 11 11 14 15 16 16 16 15 14 14 14 15 14 11 11 10 9 8 8 8 7 6 5 4 4 4 5 5 5 4 4 4 4 4 4 4 4
3 4 6 5 4 2 3 4 5 6 8 10 12 14 15 15 15 16 15 15 14 14 12 12 13 13 10 10 9 9 9 8 8 7 6 6 5 5 5 5 5 5 5 5 5 4 5 5 5
3 3 5 4 5 6 4 7 8 12 12 12 15 15 16 16 17 16 15 14 13 11 11 12 12 11 10 10 9 9 9 8 8 7 8 7 6 6 6 6 6 5 6 5 5 6 6 6 6
3 3 5 4 2 4 4 8 8 12 12 13 14 15 14 15 15 15 13 12 11 12 13 13 13 12 12 11 10 10 9 9 8 8 8 8 7 7 7 7 6 6 6 6 6 7 7 7 7
Wind_Direction
169 157 159 43 29 19 269 241 244 307 325 334 344 157 148 138 149 140 124 137 136 138 140 138 137 135 134 133 132 130 129 128 127 126 125 124 123 122 121 120 118 115 112 109 107 104 101 99 97
155 165 162 46 73 307 274 258 272 278 298 349 336 92 106 73 87 110 121 137 136 136 137 137 135 135 135 135 134 134 133 132 131 131 131 130 129 128 126 125 123 121 118 115 113 110 107 104 100
171 188 146 143 228 209 244 248 266 284 87 15 328 312 67 110 117 116 135 139 133 132 135 138 135 134 134 135 135 135 135 135 135 135 134 134 134 133 131 129 127 126 124 122 119 117 114 111 105
170 139 26 243 253 246 241 242 240 295 42 29 351 335 66 106 117 129 137 136 131 130 135 138 136 134 133 134 134 135 136 137 136 136 136 137 136 135 135 135 134 133 133 131 131 130 129 125 118
131 113 185 274 267 270 251 227 202 79 72 46 11 23 46 74 115 130 135 134 132 131 134 137 137 136 136 136 135 135 137 137 137 138 139 140 140 140 141 141 143 143 143 143 143 145 145 148 145
99 123 147 283 289 314 317 134 109 95 98 87 50 18 54 117 126 137 137 133 134 135 133 136 138 139 139 139 139 139 139 140 140 142 145 146 148 151 155 157 159 159 159 161 162 166 167 169 181
160 174 254 281 303 334 24 76 91 102 100 103 123 28 101 133 137 138 133 132 135 137 134 135 138 140 142 143 143 143 143 144 146 147 150 154 160 166 174 177 178 180 179 180 183 187 192 197 204
176 103 304 301 303 322 58 81 94 102 110 138 135 138 173 156 137 131 129 129 131 135 135 135 137 140 143 146 147 146 146 148 150 152 160 169 179 189 196 198 199 200 197 195 200 208 211 215 221
164 85 269 265 273 293 104 101 86 84 111 123 133 146 163 134 130 133 133 132 135 138 140 141 143 147 146 146 147 147 149 151 150 149 157 153 162 209 213 211 211 213 211 208 210 218 223 227 231
152 192 244 235 234 120 102 110 124 109 102 98 117 134 141 130 134 140 144 147 146 148 155 151 143 146 146 147 140 143 141 134 126 110 97 85 75 70 109 199 211 217 221 222 221 226 233 237 236
194 213 244 263 217 123 111 107 118 126 127 160 165 161 151 136 142 144 147 150 149 150 152 152 143 143 140 130 132 127 116 109 100 92 86 78 66 55 51 39 6 332 263 241 246 233 228 233 233
231 252 238 243 115 108 112 123 116 132 179 176 170 167 161 156 159 152 147 146 141 136 136 134 135 130 128 129 126 122 117 108 99 87 83 80 67 52 38 29 17 15 22 66 43 341 251 243 240
282 280 80 102 90 105 109 115 122 134 158 160 152 162 165 162 143 142 141 134 134 134 132 126 127 125 119 114 122 118 117 111 103 92 86 83 74 55 33 24 20 14 23 53 45 21 348 316 295
294 315 22 82 93 98 111 112 101 153 167 173 183 197 170 141 132 142 141 141 138 137 130 125 125 124 118 114 113 113 116 115 107 100 94 86 78 63 43 27 23 18 12 15 53 57 53 13 345
340 355 350 50 85 121 113 84 122 164 172 185 197 206 152 139 149 156 154 146 142 140 131 127 124 118 114 114 116 118 120 118 115 112 101 89 77 66 57 39 24 14 22 38 47 45 45 34 16
0 3 332 333 82 140 104 126 186 168 173 203 206 187 133 137 157 155 151 146 143 138 135 135 128 120 117 117 117 122 125 123 126 121 107 95 83 73 65 49 24 24 38 43 51 46 41 22 5
2 316 294 317 41 77 94 178 217 184 191 199 179 154 146 146 172 171 162 155 148 146 141 131 126 127 125 121 118 119 123 128 136 131 118 106 92 80 75 58 36 39 40 33 35 41 44 19 352
254 242 271 285 318 83 102 183 200 193 188 188 172 164 171 185 184 173 163 154 149 145 138 135 132 132 126 114 103 100 104 122 142 141 134 123 106 90 83 67 48 45 41 28 27 28 24 17 347
215 183 216 253 186 87 135 180 194 198 202 204 198 193 179 180 174 162 156 151 147 143 141 142 141 147 136 123 120 123 137 153 155 160 147 138 121 104 93 81 58 50 49 35 28 28 21 6 359
183 139 137 311 162 107 134 183 188 196 205 201 196 194 181 171 171 164 163 164 161 159 157 155 157 159 156 148 149 155 152 160 161 155 151 152 139 128 119 109 90 66 55 41 39 43 34 3 18
119 157 179 182 107 52 80 358 247 218 209 210 204 188 177 176 177 174 174 178 168 169 171 170 171 167 165 154 130 101 82 78 85 116 154 180 163 149 140 134 121 93 81 63 53 61 64 21 356
172 195 155 140 113 14 43 316 286 213 216 207 200 192 189 183 182 183 183 179 178 181 178 172 173 172 170 157 148 147 146 151 175 174 183 200 183 173 166 155 142 124 107 93 74 84 79 70 11
167 130 86 96 106 68 21 27 294 199 208 213 203 197 195 189 187 189 188 187 188 184 180 178 175 178 175 164 155 143 140 149 148 138 147 182 256 212 183 166 153 140 129 133 110 78 67 94 114
128 86 64 54 68 40 315 55 285 241 214 201 197 194 192 190 192 193 192 188 191 187 184 181 178 183 177 169 163 158 157 157 149 152 167 209 295 296 177 165 159 160 161 169 173 161 149 221 234
101 85 28 7 18 286 282 267 256 245 216 198 194 195 194 191 191 192 192 192 193 191 189 186 182 185 180 172 171 170 167 165 167 176 182 182 186 182 184 165 169 178 191 197 191 200 240 245 248
201 133 145 198 225 270 298 262 265 261 224 198 189 188 190 193 195 196 198 196 197 194 191 188 185 185 180 176 178 175 167 160 166 171 170 178 188 197 191 177 184 196 203 206 196 211 234 226 239
149 161 162 136 129 102 283 290 304 294 182 184 186 186 193 197 198 200 200 199 197 193 192 189 185 182 181 180 175 173 169 166 170 173 174 179 189 189 178 181 189 203 211 217 214 224 240 243 246
152 146 87 99 145 206 270 265 243 237 208 190 188 193 198 197 198 200 200 200 198 194 190 184 181 181 181 177 176 180 181 180 179 178 185 191 197 192 188 196 203 215 225 228 222 231 240 242 250
29 53 91 113 151 156 219 257 222 212 209 197 198 198 197 198 198 199 200 198 193 184 177 177 177 174 176 179 179 175 184 187 185 190 200 203 206 205 204 209 215 223 232 234 228 233 237 238 249
136 145 138 140 232 174 188 261 248 204 210 201 201 203 201 200 199 197 192 186 181 179 178 178 178 179 182 180 177 180 185 185 188 199 208 207 211 212 210 211 216 226 230 230 228 236 237 232 239
Height
1532 1533 1535 1536 1538 1541 1541 1531 1526 1523 1523 1521 1518 1515 1513 1515 1519 1526 1524 1527 1531 1534 1538 1541 1544 1546 1547 1549 1550 1551 1553 1554 1554 1555 1556 1556 1557 1558 1558 1559 1559 1560 1560 1561 1561 1562 1562 1562 1563
1532 1534 1536 1537 1540 1548 1540 1527 1523 1521 1522 1522 1521 1518 1515 1516 1516 1519 1523 1528 1532 1534 1538 1541 1544 1546 1548 1549 1551 1552 1553 1554 1555 1555 1556 1556 1557 1558 1558 1559 1560 1560 1561 1561 1562 1562 1563 1563 1564
1532 1534 1537 1537 1541 1542 1534 1522 1517 1517 1520 1523 1523 1519 1518 1519 1519 1521 1525 1529 1533 1536 1539 1542 1545 1547 1548 1550 1551 1552 1554 1555 1555 1556 1556 1557 1557 1558 1559 1559 1560 1561 1561 1562 1562 1563 1563 1564 1564
1533 1536 1537 1540 1539 1528 1521 1516 1516 1516 1519 1520 1522 1522 1521 1523 1522 1524 1527 1532 1535 1537 1540 1543 1545 1547 1549 1550 1552 1553 1554 1555 1556 1556 1557 1557 1558 1558 1559 1560 1560 1561 1561 1562 1563 1563 1564 1564 1565
1533 1535 1539 1542 1533 1520 1515 1513 1515 1517 1522 1523 1524 1524 1523 1524 1525 1528 1530 1534 1536 1539 1542 1544 1546 1548 1549 1551 1552 1553 1554 1555 1556 1556 1557 1558 1558 1559 1559 1560 1560 1561 1561 1562 1563 1563 1564 1565 1565
1533 1534 1543 1543 1530 1517 1514 1514 1515 1519 1525 1524 1526 1527 1528 1528 1528 1533 1534 1536 1539 1540 1542 1544 1547 1549 1550 1551 1553 1554 1555 1556 1557 1557 1558 1558 1559 1559 1560 1560 1560 1561 1561 1562 1562 1563 1564 1565 1565
1532 1534 1539 1534 1528 1520 1518 1517 1519 1521 1523 1526 1528 1531 1531 1532 1532 1535 1536 1539 1540 1541 1543 1545 1547 1549 1551 1552 1553 1554 1555 1556 1557 1557 1558 1559 1559 1559 1560 1560 1560 1561 1561 1561 1562 1563 1563 1564 1565
1529 1532 1535 1532 1527 1523 1520 1520 1523 1522 1524 1527 1528 1531 1533 1534 1533 1535 1538 1540 1541 1543 1544 1545 1548 1550 1551 1553 1554 1554 1555 1556 1557 1558 1558 1559 1559 1559 1560 1560 1560 1560 1560 1561 1561 1562 1562 1563 1564
1528 1534 1538 1529 1523 1520 1519 1521 1525 1526 1524 1525 1526 1527 1531 1534 1534 1536 1537 1540 1541 1543 1545 1546 1548 1550 1552 1553 1554 1555 1556 1556 1557 1558 1558 1558 1558 1559 1559 1559 1559 1559 1559 1560 1560 1560 1561 1561 1562
1524 1534 1527 1518 1515 1517 1518 1520 1523 1526 1525 1525 1525 1526 1530 1532 1535 1536 1537 1538 1541 1543 1545 1546 1548 1549 1551 1553 1554 1555 1556 1556 1557 1557 1558 1558 1558 1558 1558 1558 1558 1558 1558 1558 1558 1559 1559 1560 1561
1519 1521 1515 1513 1513 1514 1516 1520 1521 1523 1526 1522 1520 1523 1527 1531 1534 1536 1538 1540 1541 1542 1545 1546 1547 1549 1551 1552 1553 1554 1555 1556 1557 1557 1557 1557 1557 1557 1557 1557 1556 1556 1557 1557 1557 1557 1557 1558 1559
1515 1512 1512 1513 1511 1512 1514 1518 1521 1519 1520 1517 1518 1520 1524 1528 1531 1535 1537 1540 1541 1542 1545 1546 1547 1549 1551 1552 1553 1554 1555 1556 1556 1557 1557 1556 1556 1556 1556 1555 1555 1555 1555 1555 1555 1555 1556 1556 1557
1512 1511 1511 1512 1510 1512 1514 1518 1519 1520 1520 1520 1521 1523 1525 1527 1530 1534 1536 1537 1540 1543 1544 1545 1547 1549 1551 1552 1553 1554 1555 1556 1556 1556 1556 1556 1555 1555 1554 1554 1553 1553 1553 1553 1553 1553 1554 1554 1555
1511 1510 1510 1511 1511 1514 1515 1520 1521 1523 1523 1523 1523 1523 1526 1528 1529 1532 1535 1538 1540 1543 1544 1545 1547 1549 1551 1552 1553 1554 1555 1555 1556 1556 1556 1555 1554 1553 1552 1552 1552 1552 1552 1552 1552 1552 1552 1552 1552
1510 1510 1510 1510 1512 1515 1515 1521 1522 1522 1524 1524 1523 1524 1526 1528 1530 1532 1535 1537 1539 1541 1543 1546 1548 1550 1551 1552 1553 1554 1555 1555 1556 1556 1555 1554 1553 1552 1551 1550 1550 1550 1550 1551 1550 1550 1550 1550 1551
1511 1516 1520 1513 1512 1514 1516 1527 1522 1522 1522 1522 1524 1525 1527 1528 1530 1532 1535 1537 1539 1541 1544 1546 1548 1550 1551 1552 1553 1554 1555 1555 1555 1555 1554 1553 1552 1551 1550 1550 1549 1549 1549 1549 1549 1549 1549 1549 1549
1521 1526 1523 1516 1511 1512 1516 1524 1521 1521 1521 1521 1522 1523 1526 1528 1529 1531 1534 1537 1538 1541 1543 1546 1548 1550 1552 1553 1553 1554 1555 1555 1555 1554 1554 1553 1551 1550 1549 1548 1548 1548 1548 1548 1548 1547 1547 1547 1547
1525 1524 1521 1519 1513 1512 1517 1520 1518 1519 1519 1520 1521 1522 1525 1527 1529 1531 1533 1536 1539 1541 1543 1546 1548 1550 1552 1553 1553 1554 1555 1555 1554 1554 1553 1552 1551 1549 1548 1548 1547 1547 1547 1546 1546 1546 1546 1545 1545
1511 1516 1519 1516 1511 1514 1517 1518 1518 1517 1518 1518 1520 1522 1525 1527 1529 1531 1533 1536 1539 1541 1543 1545 1547 1550 1551 1552 1553 1554 1554 1554 1553 1552 1552 1551 1550 1549 1548 1547 1546 1546 1545 1545 1545 1545 1545 1544 1543
1508 1515 1518 1514 1510 1515 1519 1519 1516 1516 1516 1518 1520 1521 1522 1525 1529 1531 1533 1535 1538 1540 1542 1544 1546 1549 1550 1551 1552 1553 1553 1553 1552 1551 1551 1550 1549 1548 1547 1547 1545 1545 1544 1544 1544 1544 1544 1544 1543
1509 1514 1515 1516 1514 1516 1519 1524 1520 1517 1516 1518 1519 1520 1522 1524 1527 1530 1532 1534 1536 1538 1541 1543 1545 1547 1549 1550 1551 1551 1551 1551 1550 1550 1549 1549 1548 1548 1547 1546 1545 1544 1544 1543 1543 1543 1543 1543 1543
1513 1505 1505 1511 1522 1531 1527 1537 1523 1519 1518 1517 1518 1519 1521 1523 1526 1528 1530 1532 1534 1537 1539 1542 1544 1546 1547 1548 1549 1549 1549 1549 1549 1548 1548 1548 1547 1547 1546 1546 1545 1544 1544 1543 1543 1542 1542 1541 1541
1505 1503 1507 1514 1524 1533 1532 1537 1529 1518 1519 1516 1516 1516 1518 1521 1523 1526 1528 1530 1533 1535 1538 1540 1542 1544 1545 1546 1547 1547 1547 1547 1547 1547 1546 1546 1546 1545 1545 1545 1544 1544 1543 1542 1542 1541 1541 1540 1540
1499 1508 1515 1523 1531 1544 1537 1537 1532 1519 1513 1511 1512 1514 1516 1519 1522 1524 1527 1529 1532 1534 1536 1538 1540 1542 1543 1544 1545 1545 1545 1545 1544 1544 1544 1544 1544 1543 1543 1543 1543 1543 1542 1541 1540 1540 1539 1539 1538
1501 1519 1538 1542 1551 1548 1533 1532 1528 1507 1503 1505 1507 1510 1513 1516 1519 1522 1525 1527 1529 1532 1533 1535 1537 1539 1540 1542 1542 1542 1542 1542 1542 1542 1542 1542 1541 1541 1541 1541 1541 1541 1540 1540 1539 1538 1538 1537 1537
1501 1513 1536 1549 1552 1546 1534 1534 1517 1499 1498 1500 1503 1506 1510 1513 1516 1518 1521 1523 1526 1528 1530 1532 1534 1536 1537 1539 1539 1539 1539 1539 1539 1539 1539 1539 1539 1539 1539 1539 1539 1539 1538 1538 1537 1536 1536 1535 1534
1500 1508 1511 1530 1539 1546 1538 1526 1509 1497 1497 1499 1501 1504 1507 1509 1512 1514 1517 1520 1522 1524 1526 1529 1530 1533 1534 1536 1536 1536 1536 1537 1537 1537 1537 1537 1537 1537 1537 1537 1536 1536 1535 1535 1534 1534 1533 1532 1532
1493 1499 1515 1530 1545 1548 1539 1531 1523 1504 1500 1498 1499 1501 1502 1505 1508 1510 1513 1516 1518 1521 1523 1526 1528 1530 1531 1532 1533 1533 1534 1534 1534 1534 1534 1534 1534 1534 1534 1534 1534 1533 1533 1532 1531 1531 1530 1529 1529
1498 1502 1511 1525 1531 1544 1548 1531 1498 1496 1493 1494 1494 1495 1497 1500 1503 1506 1509 1512 1515 1518 1520 1522 1524 1526 1528 1529 1530 1530 1531 1531 1531 1531 1531 1532 1532 1531 1531 1531 1531 1530 1529 1529 1528 1527 1527 1526 1525
1495 1501 1510 1525 1529 1531 1536 1523 1483 1484 1484 1487 1488 1490 1493 1496 1499 1502 1505 1508 1511 1514 1516 1519 1521 1523 1524 1526 1526 1527 1528 1528 1528 1528 1528 1529 1528 1528 1528 1527 1527 1526 1526 1525 1524 1523 1523 1522 1521